,,PA_Meas_PMT16A,,PR_Meas_QMR101_102,,RH_Meas_QMH101,,SR_Meas_QMS101,,TA_Meas_QMH101,,GenWind,,GenWind,
time,status,PA,status,PR,status,RH,status,SR,status,TA,status,DirAvg,status,SpdAvg,
2009-09-23, 00:00:04,VALID,918.407,VALID,0,VALID,96.7107,VALID,0,VALID,19.3893,VALID,159,VALID,0.759766,
2009-09-23, 00:01:04,VALID,918.389,VALID,0,VALID,96.825,VALID,0,VALID,19.4283,VALID,159,VALID,0.534375,
2009-09-23, 00:02:04,VALID,918.339,VALID,0,VALID,96.8631,VALID,0,VALID,19.4463,VALID,159,VALID,0.889453,
2009-09-23, 00:03:04,VALID,918.354,VALID,0,VALID,96.9089,VALID,0,VALID,19.4658,VALID,159,VALID,0.578906,
2009-09-23, 00:04:04,VALID,918.308,VALID,0,VALID,96.9546,VALID,0,VALID,19.4658,VALID,159,VALID,0.925,
2009-09-23, 00:05:04,VALID,918.278,VALID,0,VALID,96.947,VALID,0,VALID,19.4868,VALID,143,VALID,0.736719,
2009-09-23, 00:06:04,VALID,918.285,VALID,0,VALID,96.947,VALID,0,VALID,19.4673,VALID,143,VALID,0.755859,
2009-09-23, 00:07:04,VALID,918.255,VALID,0,VALID,96.9851,VALID,0.107441,VALID,19.5048,VALID,143,VALID,0.567187,
2009-09-23, 00:08:04,VALID,918.261,VALID,0,VALID,96.9622,VALID,0,VALID,19.4868,VALID,143,VALID,0.394922,
2009-09-23, 00:09:04,VALID,918.204,VALID,0,VALID,96.947,VALID,0,VALID,19.4673,VALID,143,VALID,0.238281,
2009-09-23, 00:10:04,VALID,918.158,VALID,0,VALID,97.0003,VALID,0,VALID,19.4673,VALID,143,VALID,0.978125,
2009-09-23, 00:11:04,VALID,918.202,VALID,0,VALID,97.0232,VALID,0,VALID,19.4673,VALID,143,VALID,0.684766,
2009-09-23, 00:12:04,VALID,918.139,VALID,0,VALID,97.0385,VALID,0,VALID,19.4868,VALID,142,VALID,0.928125,
2009-09-23, 00:13:04,VALID,918.099,VALID,0,VALID,96.9775,VALID,0,VALID,19.4268,VALID,116,VALID,1.00234,
2009-09-23, 00:14:04,VALID,918.064,VALID,0,VALID,96.9622,VALID,0,VALID,19.4283,VALID,116,VALID,1.21445,
2009-09-23, 00:15:04,VALID,918.031,VALID,0,VALID,97.0308,VALID,0,VALID,19.4088,VALID,116,VALID,0.880469,
2009-09-23, 00:16:04,VALID,918.004,VALID,0,VALID,97.0918,VALID,0,VALID,19.4088,VALID,116,VALID,0.817187,
2009-09-23, 00:17:04,VALID,917.984,VALID,0,VALID,97.1147,VALID,0,VALID,19.4478,VALID,118,VALID,1.08984,
2009-09-23, 00:18:04,VALID,917.975,VALID,0,VALID,97.1528,VALID,0,VALID,19.4478,VALID,173,VALID,1.26211,
2009-09-23, 00:19:04,VALID,917.966,VALID,0,VALID,97.1452,VALID,0,VALID,19.4673,VALID,147,VALID,1.75352,
2009-09-23, 00:20:04,VALID,917.952,VALID,0,VALID,97.1452,VALID,0,VALID,19.4673,VALID,141,VALID,1.04102,
2009-09-23, 00:21:04,VALID,917.979,VALID,0,VALID,97.1528,VALID,0,VALID,19.4673,VALID,133,VALID,1.14844,
2009-09-23, 00:22:04,VALID,917.953,VALID,0,VALID,97.1604,VALID,0,VALID,19.4478,VALID,133,VALID,1.51914,
2009-09-23, 00:23:04,VALID,917.931,VALID,0,VALID,97.1452,VALID,0,VALID,19.4283,VALID,132,VALID,1.56602,
2009-09-23, 00:24:04,VALID,917.901,VALID,0,VALID,97.1528,VALID,0,VALID,19.3879,VALID,128,VALID,1.38203,
2009-09-23, 00:25:04,VALID,917.916,VALID,0,VALID,97.1528,VALID,0,VALID,19.3698,VALID,127,VALID,1.07109,
2009-09-23, 00:26:04,VALID,917.877,VALID,0,VALID,97.1909,VALID,0,VALID,19.3698,VALID,124,VALID,1.56602,
2009-09-23, 00:27:04,VALID,917.878,VALID,0,VALID,97.2062,VALID,0,VALID,19.3698,VALID,143,VALID,1.05664,
2009-09-23, 00:28:04,VALID,917.872,VALID,0,VALID,97.1909,VALID,0,VALID,19.3698,VALID,144,VALID,0.921484,
2009-09-23, 00:29:04,VALID,917.881,VALID,0,VALID,97.1909,VALID,0,VALID,19.3503,VALID,144,VALID,0.723828,
2009-09-23, 00:30:04,VALID,917.857,VALID,0,VALID,97.1986,VALID,0,VALID,19.3308,VALID,145,VALID,0.985937,
2009-09-23, 00:31:04,VALID,917.859,VALID,0,VALID,97.2062,VALID,0,VALID,19.3308,VALID,159,VALID,1.45898,
2009-09-23, 00:32:04,VALID,917.839,VALID,0,VALID,97.2062,VALID,0,VALID,19.3113,VALID,166,VALID,1.16641,
2009-09-23, 00:33:04,VALID,917.848,VALID,0,VALID,97.2138,VALID,0,VALID,19.3113,VALID,166,VALID,0.588281,
2009-09-23, 00:34:04,VALID,917.838,VALID,0,VALID,97.1604,VALID,0,VALID,19.2723,VALID,166,VALID,0.584766,
2009-09-23, 00:35:04,VALID,917.854,VALID,0,VALID,97.2214,VALID,0,VALID,19.2528,VALID,165,VALID,0.678125,
2009-09-23, 00:36:04,VALID,917.851,VALID,0,VALID,97.1604,VALID,0,VALID,19.2543,VALID,124,VALID,0.642578,
2009-09-23, 00:37:04,VALID,917.873,VALID,0,VALID,97.1909,VALID,0,VALID,19.2334,VALID,124,VALID,0.181641,
2009-09-23, 00:38:04,VALID,917.854,VALID,0,VALID,97.2443,VALID,0,VALID,19.2528,VALID,124,VALID,0.400391,
2009-09-23, 00:39:04,VALID,917.877,VALID,0,VALID,97.1909,VALID,0,VALID,19.2543,VALID,124,VALID,0.490625,
2009-09-23, 00:40:04,VALID,917.879,VALID,0,VALID,97.0842,VALID,0,VALID,19.1749,VALID,124,VALID,0.581641,
2009-09-23, 00:41:04,VALID,917.856,VALID,0,VALID,97.1223,VALID,0,VALID,19.1554,VALID,124,VALID,0.558203,
2009-09-23, 00:42:04,VALID,917.875,VALID,0,VALID,97.0766,VALID,0,VALID,19.1164,VALID,124,VALID,0.804688,
2009-09-23, 00:43:04,VALID,917.879,VALID,0,VALID,97.0842,VALID,0,VALID,19.0774,VALID,124,VALID,0.785156,
2009-09-23, 00:44:04,VALID,917.877,VALID,0,VALID,97.0918,VALID,0,VALID,19.0175,VALID,124,VALID,0.776953,
2009-09-23, 00:45:04,VALID,917.864,VALID,0,VALID,97.1909,VALID,0,VALID,19.0384,VALID,124,VALID,0.562109,
2009-09-23, 00:46:04,VALID,917.851,VALID,0,VALID,97.2519,VALID,0,VALID,19.0579,VALID,124,VALID,0.604297,
2009-09-23, 00:47:04,VALID,917.791,VALID,0,VALID,97.1071,VALID,0,VALID,18.9994,VALID,124,VALID,0.744922,
2009-09-23, 00:48:04,VALID,917.792,VALID,0,VALID,97.1299,VALID,0,VALID,18.9799,VALID,124,VALID,0.647656,
2009-09-23, 00:49:04,VALID,917.783,VALID,0,VALID,97.1604,VALID,0,VALID,18.9604,VALID,124,VALID,0.583984,
2009-09-23, 00:50:04,VALID,917.754,VALID,0,VALID,97.1604,VALID,0,VALID,18.9619,VALID,124,VALID,0.360547,
2009-09-23, 00:51:04,VALID,917.766,VALID,0,VALID,97.1376,VALID,0,VALID,18.9214,VALID,124,VALID,0.446094,
2009-09-23, 00:52:04,VALID,917.772,VALID,0,VALID,97.2062,VALID,0,VALID,18.9005,VALID,124,VALID,0.354688,
2009-09-23, 00:53:04,VALID,917.788,VALID,0,VALID,97.2519,VALID,0,VALID,18.9005,VALID,124,VALID,0.395703,
2009-09-23, 00:54:04,VALID,917.777,VALID,0,VALID,97.2595,VALID,0.107441,VALID,18.92,VALID,124,VALID,0.742969,
2009-09-23, 00:55:04,VALID,917.76,VALID,0,VALID,97.2367,VALID,0.107441,VALID,18.9214,VALID,124,VALID,0.823438,
2009-09-23, 00:56:04,VALID,917.783,VALID,0,VALID,97.2138,VALID,0,VALID,18.881,VALID,124,VALID,0.960156,
2009-09-23, 00:57:04,VALID,917.776,VALID,0,VALID,97.2748,VALID,0,VALID,18.8615,VALID,124,VALID,0.928125,
2009-09-23, 00:58:04,VALID,917.753,VALID,0,VALID,97.1986,VALID,0,VALID,18.842,VALID,123,VALID,0.744922,
2009-09-23, 00:59:04,VALID,917.786,VALID,0,VALID,97.1681,VALID,0,VALID,18.803,VALID,123,VALID,0.752734,
2009-09-23, 01:00:04,VALID,917.774,VALID,0,VALID,97.2977,VALID,0,VALID,18.803,VALID,123,VALID,0.948047,
2009-09-23, 01:01:04,VALID,917.773,VALID,0,VALID,97.2748,VALID,0,VALID,18.803,VALID,123,VALID,0.629687,
2009-09-23, 01:02:04,VALID,917.761,VALID,0,VALID,97.2977,VALID,0,VALID,18.764,VALID,123,VALID,0.367578,
2009-09-23, 01:03:04,VALID,917.784,VALID,0,VALID,97.3434,VALID,0,VALID,18.764,VALID,123,VALID,0.546484,
2009-09-23, 01:04:04,VALID,917.743,VALID,0,VALID,97.2062,VALID,0,VALID,18.7056,VALID,123,VALID,0.916406,
2009-09-23, 01:05:04,VALID,917.722,VALID,0,VALID,97.2062,VALID,0,VALID,18.6471,VALID,122,VALID,1.13242,
2009-09-23, 01:06:04,VALID,917.711,VALID,0,VALID,97.2138,VALID,0,VALID,18.6276,VALID,122,VALID,1.23555,
2009-09-23, 01:07:04,VALID,917.698,VALID,0,VALID,97.2595,VALID,0,VALID,18.5886,VALID,122,VALID,0.865234,
2009-09-23, 01:08:04,VALID,917.715,VALID,0,VALID,97.3129,VALID,0,VALID,18.59,VALID,122,VALID,0.527344,
2009-09-23, 01:09:04,VALID,917.738,VALID,0,VALID,97.3281,VALID,0,VALID,18.5705,VALID,122,VALID,0.370313,
2009-09-23, 01:10:04,VALID,917.718,VALID,0,VALID,97.3891,VALID,0,VALID,18.5691,VALID,122,VALID,0.157813,
2009-09-23, 01:11:04,VALID,917.771,VALID,0,VALID,97.4044,VALID,0.107441,VALID,18.5886,VALID,122,VALID,0.380469,
2009-09-23, 01:12:04,VALID,917.801,VALID,0,VALID,97.4349,VALID,0,VALID,18.6095,VALID,122,VALID,0.616406,
2009-09-23, 01:13:04,VALID,917.813,VALID,0,VALID,97.412,VALID,0,VALID,18.629,VALID,122,VALID,0.413281,
2009-09-23, 01:14:04,VALID,917.82,VALID,0,VALID,97.473,VALID,0,VALID,18.6485,VALID,122,VALID,0.666797,
2009-09-23, 01:15:04,VALID,917.852,VALID,0,VALID,97.5187,VALID,0,VALID,18.6861,VALID,122,VALID,0.23125,
2009-09-23, 01:16:04,VALID,917.844,VALID,0,VALID,97.5873,VALID,0,VALID,18.7655,VALID,122,VALID,0.2125,
2009-09-23, 01:17:04,VALID,917.837,VALID,0,VALID,97.534,VALID,0,VALID,18.8045,VALID,122,VALID,0.270703,
2009-09-23, 01:18:04,VALID,917.801,VALID,0,VALID,97.5569,VALID,0,VALID,18.824,VALID,122,VALID,0.105859,
2009-09-23, 01:19:04,VALID,917.798,VALID,0,VALID,97.4959,VALID,0,VALID,18.803,VALID,122,VALID,0.426953,
2009-09-23, 01:20:04,VALID,917.771,VALID,0,VALID,97.4273,VALID,0,VALID,18.785,VALID,122,VALID,0.103516,
2009-09-23, 01:21:04,VALID,917.738,VALID,0,VALID,97.4425,VALID,0.107441,VALID,18.7446,VALID,122,VALID,0.362109,
2009-09-23, 01:22:04,VALID,917.703,VALID,0,VALID,97.4196,VALID,0,VALID,18.7669,VALID,122,VALID,0,
2009-09-23, 01:23:04,VALID,917.662,VALID,0,VALID,97.3891,VALID,0,VALID,18.7279,VALID,122,VALID,0.458594,
2009-09-23, 01:24:04,VALID,917.705,VALID,0,VALID,97.3434,VALID,0,VALID,18.6485,VALID,122,VALID,0.246094,
2009-09-23, 01:25:04,VALID,917.714,VALID,0,VALID,97.29,VALID,0,VALID,18.6499,VALID,122,VALID,0.587891,
2009-09-23, 01:26:04,VALID,917.732,VALID,0,VALID,97.3358,VALID,0,VALID,18.59,VALID,122,VALID,0.530859,
2009-09-23, 01:27:04,VALID,917.763,VALID,0,VALID,97.4044,VALID,0,VALID,18.6304,VALID,122,VALID,0.475391,
2009-09-23, 01:28:04,VALID,917.777,VALID,0,VALID,97.4654,VALID,0,VALID,18.6889,VALID,122,VALID,0.471875,
2009-09-23, 01:29:04,VALID,917.75,VALID,0,VALID,97.5111,VALID,0,VALID,18.7084,VALID,122,VALID,0.401563,
2009-09-23, 01:30:04,VALID,917.779,VALID,0,VALID,97.5264,VALID,0,VALID,18.7474,VALID,122,VALID,0.425391,
2009-09-23, 01:31:04,VALID,917.759,VALID,0,VALID,97.5416,VALID,0,VALID,18.7864,VALID,122,VALID,0.653906,
2009-09-23, 01:32:04,VALID,917.752,VALID,0,VALID,97.473,VALID,0,VALID,18.746,VALID,122,VALID,0.825781,
2009-09-23, 01:33:04,VALID,917.727,VALID,0,VALID,97.4959,VALID,0,VALID,18.7669,VALID,122,VALID,0.405469,
2009-09-23, 01:34:04,VALID,917.703,VALID,0,VALID,97.5264,VALID,0,VALID,18.785,VALID,122,VALID,0.497266,
2009-09-23, 01:35:04,VALID,917.676,VALID,0,VALID,97.5264,VALID,0,VALID,18.8045,VALID,122,VALID,0.249609,
2009-09-23, 01:36:04,VALID,917.697,VALID,0,VALID,97.5187,VALID,0,VALID,18.8254,VALID,268,VALID,1.37266,
2009-09-23, 01:37:04,VALID,917.702,VALID,0,VALID,97.5416,VALID,0,VALID,18.824,VALID,269,VALID,0.464844,
2009-09-23, 01:38:04,VALID,917.672,VALID,0,VALID,97.4959,VALID,0,VALID,18.824,VALID,269,VALID,1.29961,
2009-09-23, 01:39:04,VALID,917.671,VALID,0,VALID,97.5035,VALID,0,VALID,18.8045,VALID,269,VALID,0.746875,
2009-09-23, 01:40:04,VALID,917.655,VALID,0,VALID,97.473,VALID,0,VALID,18.803,VALID,269,VALID,0.592969,
2009-09-23, 01:41:04,VALID,917.651,VALID,0,VALID,97.5569,VALID,0,VALID,18.824,VALID,269,VALID,0.353516,
2009-09-23, 01:42:04,VALID,917.614,VALID,0,VALID,97.5264,VALID,0,VALID,18.824,VALID,269,VALID,0.557813,
2009-09-23, 01:43:04,VALID,917.612,VALID,0,VALID,97.534,VALID,0,VALID,18.824,VALID,269,VALID,0.84375,
2009-09-23, 01:44:04,VALID,917.616,VALID,0,VALID,97.5187,VALID,0,VALID,18.8434,VALID,269,VALID,0.880078,
2009-09-23, 01:45:04,VALID,917.591,VALID,0,VALID,97.5416,VALID,0,VALID,18.8434,VALID,269,VALID,0.747656,
2009-09-23, 01:46:04,VALID,917.545,VALID,0,VALID,97.5416,VALID,0,VALID,18.8225,VALID,269,VALID,0.655078,
2009-09-23, 01:47:04,VALID,917.541,VALID,0,VALID,97.5492,VALID,0,VALID,18.8434,VALID,269,VALID,0.617188,
2009-09-23, 01:48:05,VALID,917.527,VALID,0,VALID,97.5264,VALID,0,VALID,18.8434,VALID,269,VALID,0.614062,
2009-09-23, 01:49:05,VALID,917.543,VALID,0,VALID,97.534,VALID,0,VALID,18.8434,VALID,269,VALID,0.485547,
2009-09-23, 01:50:05,VALID,917.517,VALID,0,VALID,97.5416,VALID,0,VALID,18.8434,VALID,269,VALID,0.289844,
2009-09-23, 01:51:05,VALID,917.506,VALID,0,VALID,97.5264,VALID,0.107441,VALID,18.8434,VALID,269,VALID,0.202344,
2009-09-23, 01:52:05,VALID,917.499,VALID,0,VALID,97.595,VALID,0,VALID,18.8629,VALID,269,VALID,0.147266,
2009-09-23, 01:53:05,VALID,917.512,VALID,0,VALID,97.4654,VALID,0,VALID,18.8449,VALID,269,VALID,0,
2009-09-23, 01:54:05,VALID,917.473,VALID,0,VALID,97.4959,VALID,0,VALID,18.785,VALID,269,VALID,0,
2009-09-23, 01:55:05,VALID,917.504,VALID,0,VALID,97.5492,VALID,0,VALID,18.8045,VALID,269,VALID,0.0351563,
2009-09-23, 01:56:05,VALID,917.465,VALID,0,VALID,97.4959,VALID,0,VALID,18.785,VALID,269,VALID,0.25625,
2009-09-23, 01:57:05,VALID,917.432,VALID,0,VALID,97.473,VALID,0,VALID,18.7265,VALID,269,VALID,0.169141,
2009-09-23, 01:58:05,VALID,917.437,VALID,0,VALID,97.5035,VALID,0,VALID,18.7474,VALID,269,VALID,0.143359,
2009-09-23, 01:59:05,VALID,917.414,VALID,0,VALID,97.4882,VALID,0.107441,VALID,18.6861,VALID,269,VALID,0.5875,
2009-09-23, 02:00:05,VALID,917.414,VALID,0,VALID,97.412,VALID,0,VALID,18.5886,VALID,269,VALID,0.724609,
2009-09-23, 02:01:05,VALID,917.398,VALID,0,VALID,97.4196,VALID,0,VALID,18.5511,VALID,269,VALID,0.367578,
2009-09-23, 02:02:05,VALID,917.376,VALID,0,VALID,97.4273,VALID,0,VALID,18.5121,VALID,269,VALID,0.230859,
2009-09-23, 02:03:05,VALID,917.385,VALID,0,VALID,97.4959,VALID,0,VALID,18.5107,VALID,269,VALID,0.00664063,
2009-09-23, 02:04:05,VALID,917.347,VALID,0,VALID,97.4577,VALID,0,VALID,18.4717,VALID,269,VALID,0.495703,
2009-09-23, 02:05:05,VALID,917.329,VALID,0,VALID,97.4577,VALID,0,VALID,18.4327,VALID,269,VALID,0.423438,
2009-09-23, 02:06:05,VALID,917.291,VALID,0,VALID,97.473,VALID,0.107441,VALID,18.4341,VALID,269,VALID,0.646094,
2009-09-23, 02:07:05,VALID,917.274,VALID,0,VALID,97.473,VALID,0,VALID,18.3937,VALID,269,VALID,0.396484,
2009-09-23, 02:08:05,VALID,917.295,VALID,0,VALID,97.534,VALID,0.107441,VALID,18.4146,VALID,269,VALID,0.233203,
2009-09-23, 02:09:05,VALID,917.292,VALID,0,VALID,97.4806,VALID,0.107441,VALID,18.3742,VALID,269,VALID,0,
2009-09-23, 02:10:05,VALID,917.296,VALID,0,VALID,97.5111,VALID,0.107441,VALID,18.3756,VALID,269,VALID,0.0960938,
2009-09-23, 02:11:05,VALID,917.329,VALID,0,VALID,97.4349,VALID,0,VALID,18.3172,VALID,269,VALID,0.381641,
2009-09-23, 02:12:05,VALID,917.328,VALID,0,VALID,97.4501,VALID,0,VALID,18.2378,VALID,269,VALID,0.296875,
2009-09-23, 02:13:05,VALID,917.345,VALID,0,VALID,97.473,VALID,0,VALID,18.2197,VALID,269,VALID,0.380078,
2009-09-23, 02:14:05,VALID,917.334,VALID,0,VALID,97.5492,VALID,0.107441,VALID,18.2392,VALID,269,VALID,0.373047,
2009-09-23, 02:15:05,VALID,917.331,VALID,0,VALID,97.5111,VALID,0,VALID,18.2002,VALID,269,VALID,0.441797,
2009-09-23, 02:16:05,VALID,917.338,VALID,0,VALID,97.473,VALID,0,VALID,18.1417,VALID,269,VALID,0.644922,
2009-09-23, 02:17:05,VALID,917.357,VALID,0,VALID,97.5111,VALID,0.107441,VALID,18.1014,VALID,269,VALID,0.529688,
2009-09-23, 02:18:05,VALID,917.342,VALID,0,VALID,97.5416,VALID,0,VALID,18.1028,VALID,269,VALID,0.486328,
2009-09-23, 02:19:05,VALID,917.339,VALID,0,VALID,97.5416,VALID,0,VALID,18.0833,VALID,269,VALID,0.676172,
2009-09-23, 02:20:05,VALID,917.345,VALID,0,VALID,97.5873,VALID,0.107441,VALID,18.0624,VALID,269,VALID,0.190625,
2009-09-23, 02:21:05,VALID,917.338,VALID,0,VALID,97.6255,VALID,0,VALID,18.1028,VALID,269,VALID,0.117578,
2009-09-23, 02:22:05,VALID,917.335,VALID,0,VALID,97.5873,VALID,0.107441,VALID,18.0833,VALID,269,VALID,0.307422,
2009-09-23, 02:23:05,VALID,917.344,VALID,0,VALID,97.6026,VALID,0,VALID,18.0638,VALID,269,VALID,0.766797,
2009-09-23, 02:24:05,VALID,917.357,VALID,0,VALID,97.6178,VALID,0,VALID,18.0638,VALID,269,VALID,0.676562,
2009-09-23, 02:25:05,VALID,917.375,VALID,0,VALID,97.6255,VALID,0,VALID,18.0443,VALID,269,VALID,0.476953,
2009-09-23, 02:26:05,VALID,917.382,VALID,0,VALID,97.5873,VALID,0,VALID,18.0053,VALID,269,VALID,0.712109,
2009-09-23, 02:27:05,VALID,917.427,VALID,0,VALID,97.6255,VALID,0,VALID,18.0053,VALID,269,VALID,0.740625,
2009-09-23, 02:28:05,VALID,917.421,VALID,0,VALID,97.6255,VALID,0.107441,VALID,17.9845,VALID,269,VALID,0.766016,
2009-09-23, 02:29:05,VALID,917.416,VALID,0,VALID,97.6178,VALID,0,VALID,17.9858,VALID,269,VALID,0.406641,
2009-09-23, 02:30:05,VALID,917.43,VALID,0,VALID,97.6102,VALID,0,VALID,17.9455,VALID,269,VALID,0.616797,
2009-09-23, 02:31:05,VALID,917.39,VALID,0,VALID,97.6255,VALID,0,VALID,17.9468,VALID,269,VALID,0.565625,
2009-09-23, 02:32:05,VALID,917.415,VALID,0,VALID,97.6331,VALID,0,VALID,17.9274,VALID,269,VALID,0.80625,
2009-09-23, 02:33:05,VALID,917.378,VALID,0,VALID,97.6255,VALID,0,VALID,17.9274,VALID,269,VALID,0.8375,
2009-09-23, 02:34:05,VALID,917.395,VALID,0,VALID,97.6407,VALID,0,VALID,17.9079,VALID,269,VALID,0.865234,
2009-09-23, 02:35:05,VALID,917.353,VALID,0,VALID,97.5797,VALID,0,VALID,17.8689,VALID,269,VALID,0.964844,
2009-09-23, 02:36:05,VALID,917.36,VALID,0,VALID,97.6026,VALID,0,VALID,17.8299,VALID,269,VALID,0.987891,
2009-09-23, 02:37:05,VALID,917.375,VALID,0,VALID,97.6331,VALID,0,VALID,17.8104,VALID,269,VALID,1.13984,
2009-09-23, 02:38:05,VALID,917.399,VALID,0,VALID,97.6483,VALID,0,VALID,17.8299,VALID,269,VALID,0.85625,
2009-09-23, 02:39:05,VALID,917.412,VALID,0,VALID,97.7093,VALID,0,VALID,17.8494,VALID,269,VALID,0.917969,
2009-09-23, 02:40:05,VALID,917.417,VALID,0,VALID,97.7017,VALID,0,VALID,17.8494,VALID,269,VALID,0.908984,
2009-09-23, 02:41:05,VALID,917.463,VALID,0,VALID,97.7474,VALID,0,VALID,17.8689,VALID,269,VALID,1.16172,
2009-09-23, 02:42:05,VALID,917.469,VALID,0,VALID,97.7627,VALID,0,VALID,17.9274,VALID,269,VALID,1.03828,
2009-09-23, 02:43:05,VALID,917.509,VALID,0,VALID,97.7246,VALID,0,VALID,17.9079,VALID,269,VALID,0.575391,
2009-09-23, 02:44:05,VALID,917.482,VALID,0,VALID,97.7169,VALID,0.107441,VALID,17.9079,VALID,269,VALID,0.791016,
2009-09-23, 02:45:05,VALID,917.504,VALID,0,VALID,97.7551,VALID,0,VALID,17.9468,VALID,269,VALID,0.778516,
2009-09-23, 02:46:05,VALID,917.477,VALID,0,VALID,97.7093,VALID,0,VALID,17.9482,VALID,269,VALID,0.794922,
2009-09-23, 02:47:05,VALID,917.481,VALID,0,VALID,97.7322,VALID,0,VALID,17.9468,VALID,269,VALID,0.576563,
2009-09-23, 02:48:05,VALID,917.481,VALID,0,VALID,97.7169,VALID,0,VALID,17.9468,VALID,269,VALID,0.487109,
2009-09-23, 02:49:05,VALID,917.471,VALID,0,VALID,97.656,VALID,0,VALID,17.8884,VALID,269,VALID,0.419531,
2009-09-23, 02:50:05,VALID,917.445,VALID,0,VALID,97.6255,VALID,0,VALID,17.8299,VALID,269,VALID,0.294922,
2009-09-23, 02:51:05,VALID,917.436,VALID,0,VALID,97.6331,VALID,0,VALID,17.7714,VALID,269,VALID,0.428125,
2009-09-23, 02:52:05,VALID,917.451,VALID,0,VALID,97.6483,VALID,0,VALID,17.7714,VALID,269,VALID,0.908203,
2009-09-23, 02:53:05,VALID,917.425,VALID,0,VALID,97.6483,VALID,0,VALID,17.7325,VALID,269,VALID,0.710938,
2009-09-23, 02:54:05,VALID,917.443,VALID,0,VALID,97.6407,VALID,0,VALID,17.7338,VALID,269,VALID,0.817969,
2009-09-23, 02:55:05,VALID,917.42,VALID,0,VALID,97.6941,VALID,0,VALID,17.6935,VALID,269,VALID,0.964844,
2009-09-23, 02:56:05,VALID,917.413,VALID,0,VALID,97.7017,VALID,0,VALID,17.6935,VALID,268,VALID,0.891406,
2009-09-23, 02:57:05,VALID,917.402,VALID,0,VALID,97.7246,VALID,0,VALID,17.674,VALID,268,VALID,0.807031,
2009-09-23, 02:58:05,VALID,917.373,VALID,0,VALID,97.7322,VALID,0,VALID,17.6935,VALID,268,VALID,0.910547,
2009-09-23, 02:59:05,VALID,917.35,VALID,0,VALID,97.7779,VALID,0,VALID,17.713,VALID,268,VALID,0.700781,
2009-09-23, 03:00:05,VALID,917.345,VALID,0,VALID,97.7017,VALID,0,VALID,17.674,VALID,268,VALID,0.687891,
2009-09-23, 03:01:05,VALID,917.352,VALID,0,VALID,97.6788,VALID,0,VALID,17.6559,VALID,268,VALID,0.876172,
2009-09-23, 03:02:05,VALID,917.343,VALID,0,VALID,97.7093,VALID,0,VALID,17.6364,VALID,268,VALID,0.912891,
2009-09-23, 03:03:05,VALID,917.331,VALID,0,VALID,97.7169,VALID,0,VALID,17.5961,VALID,268,VALID,1.1582,
2009-09-23, 03:04:05,VALID,917.332,VALID,0,VALID,97.7474,VALID,0,VALID,17.6364,VALID,147,VALID,1.39414,
2009-09-23, 03:05:05,VALID,917.314,VALID,0,VALID,97.8008,VALID,0,VALID,17.6948,VALID,154,VALID,1.11953,
2009-09-23, 03:06:05,VALID,917.318,VALID,0,VALID,97.8237,VALID,0,VALID,17.713,VALID,154,VALID,1.08711,
2009-09-23, 03:07:05,VALID,917.311,VALID,0,VALID,97.8389,VALID,0,VALID,17.752,VALID,161,VALID,1.04531,
2009-09-23, 03:08:05,VALID,917.295,VALID,0,VALID,97.8084,VALID,0,VALID,17.7923,VALID,161,VALID,0.844141,
2009-09-23, 03:09:05,VALID,917.279,VALID,0,VALID,97.7779,VALID,0,VALID,17.7923,VALID,161,VALID,0.791797,
2009-09-23, 03:10:05,VALID,917.247,VALID,0,VALID,97.6865,VALID,0,VALID,17.7143,VALID,161,VALID,0.896484,
2009-09-23, 03:11:05,VALID,917.277,VALID,0,VALID,97.7703,VALID,0,VALID,17.7143,VALID,161,VALID,0.924219,
2009-09-23, 03:12:05,VALID,917.298,VALID,0,VALID,97.7779,VALID,0,VALID,17.713,VALID,161,VALID,1.08438,
2009-09-23, 03:13:05,VALID,917.316,VALID,0,VALID,97.7703,VALID,0,VALID,17.7338,VALID,161,VALID,0.748828,
2009-09-23, 03:14:05,VALID,917.324,VALID,0,VALID,97.8008,VALID,0,VALID,17.7325,VALID,162,VALID,0.575,
2009-09-23, 03:15:05,VALID,917.314,VALID,0,VALID,97.8008,VALID,0,VALID,17.752,VALID,162,VALID,0.566797,
2009-09-23, 03:16:05,VALID,917.327,VALID,0,VALID,97.816,VALID,0,VALID,17.752,VALID,162,VALID,0.482031,
2009-09-23, 03:17:05,VALID,917.319,VALID,0,VALID,97.7932,VALID,0,VALID,17.7923,VALID,162,VALID,0.253125,
2009-09-23, 03:18:05,VALID,917.347,VALID,0,VALID,97.8008,VALID,0,VALID,17.8118,VALID,162,VALID,0.292188,
2009-09-23, 03:19:05,VALID,917.32,VALID,0,VALID,97.8313,VALID,0,VALID,17.8104,VALID,162,VALID,0,
2009-09-23, 03:20:05,VALID,917.337,VALID,0,VALID,97.7932,VALID,0,VALID,17.8299,VALID,162,VALID,0.0730469,
2009-09-23, 03:21:05,VALID,917.311,VALID,0,VALID,97.7703,VALID,0,VALID,17.7714,VALID,162,VALID,0.233984,
2009-09-23, 03:22:05,VALID,917.305,VALID,0,VALID,97.7551,VALID,0,VALID,17.7923,VALID,162,VALID,0.127344,
2009-09-23, 03:23:05,VALID,917.308,VALID,0,VALID,97.7551,VALID,0,VALID,17.7714,VALID,162,VALID,0,
2009-09-23, 03:24:05,VALID,917.31,VALID,0,VALID,97.6331,VALID,0,VALID,17.6935,VALID,162,VALID,0,
2009-09-23, 03:25:05,VALID,917.33,VALID,0,VALID,97.5569,VALID,0,VALID,17.6169,VALID,162,VALID,0.437109,
2009-09-23, 03:26:05,VALID,917.354,VALID,0,VALID,97.5569,VALID,0,VALID,17.5389,VALID,162,VALID,0.264844,
2009-09-23, 03:27:05,VALID,917.355,VALID,0,VALID,97.5797,VALID,0,VALID,17.4805,VALID,162,VALID,0.199219,
2009-09-23, 03:28:05,VALID,917.34,VALID,0,VALID,97.7779,VALID,0,VALID,17.4986,VALID,162,VALID,0.532422,
2009-09-23, 03:29:05,VALID,917.366,VALID,0,VALID,97.8542,VALID,0,VALID,17.6156,VALID,162,VALID,0.575391,
2009-09-23, 03:30:05,VALID,917.376,VALID,0,VALID,97.8389,VALID,0,VALID,17.6156,VALID,162,VALID,0.521094,
2009-09-23, 03:31:05,VALID,917.342,VALID,0,VALID,97.7856,VALID,0,VALID,17.6156,VALID,162,VALID,0.139844,
2009-09-23, 03:32:05,VALID,917.359,VALID,0,VALID,97.7551,VALID,0.107441,VALID,17.5974,VALID,162,VALID,0,
2009-09-23, 03:33:05,VALID,917.356,VALID,0,VALID,97.6865,VALID,0,VALID,17.5571,VALID,162,VALID,0.347266,
2009-09-23, 03:34:05,VALID,917.376,VALID,0,VALID,97.5873,VALID,0,VALID,17.4791,VALID,162,VALID,0.723437,
2009-09-23, 03:35:05,VALID,917.372,VALID,0,VALID,97.5721,VALID,0,VALID,17.3622,VALID,162,VALID,0.509766,
2009-09-23, 03:36:05,VALID,917.403,VALID,0,VALID,97.6712,VALID,0,VALID,17.383,VALID,162,VALID,0.332031,
2009-09-23, 03:37:05,VALID,917.46,VALID,0,VALID,97.6026,VALID,0,VALID,17.3441,VALID,162,VALID,0,
2009-09-23, 03:38:05,VALID,917.441,VALID,0,VALID,97.6788,VALID,0,VALID,17.3246,VALID,162,VALID,0,
2009-09-23, 03:39:05,VALID,917.481,VALID,0,VALID,97.7474,VALID,0,VALID,17.3817,VALID,162,VALID,0,
2009-09-23, 03:40:05,VALID,917.472,VALID,0,VALID,97.8618,VALID,0,VALID,17.4402,VALID,162,VALID,0.380469,
2009-09-23, 03:41:05,VALID,917.467,VALID,0,VALID,97.8237,VALID,0.107441,VALID,17.4791,VALID,162,VALID,0.660156,
2009-09-23, 03:42:05,VALID,917.477,VALID,0,VALID,97.877,VALID,0,VALID,17.5181,VALID,162,VALID,0.897656,
2009-09-23, 03:43:05,VALID,917.463,VALID,0,VALID,97.7551,VALID,0,VALID,17.4791,VALID,162,VALID,0.970703,
2009-09-23, 03:44:05,VALID,917.45,VALID,0,VALID,97.6331,VALID,0,VALID,17.4025,VALID,162,VALID,0.925391,